Location: Hamilton
(37.7830°S, 175.2830°E)
Time: 17:25:00
(UTC+13:00)

Cosmos 2228 Rocket - Pass Details

Date: 24 January 2019
Orbit: 617 x 653 km, 82.5° (Epoch: 15 October)

Event Time Altitude Azimuth Distance (km) Brightness Sun altitude
Exits shadow 21:13:58 - 30° (NNE) 2,381 5.5 -7.0°
Reaches altitude 10° 21:15:07 10° 38° (NE) 1,987 5.1 -7.2°
Maximum altitude 21:18:39 24° 92° (E) 1,304 4.3 -7.8°
Drops below altitude 10° 21:22:13 10° 145° (SE) 2,014 5.7 -8.4°
Sets 21:24:47 0° 158° (SSE) 2,932 6.7 -8.9°
